Terug naar catalogus

COSMOS 2251 DEB

ActiefLEO
NORAD 33907·DEBRIS·🇷🇺 Russia

Gelanceerd Jun 16, 1993 vanaf Plesetsk Cosmodrome

Loading…

Volgende Passages (komende 24 uur)

TLE

VersSource: Space-Track

Epoch: Sep 13, 2026, 22:53 UTC

1 33907U 93036DL  26256.95389866  .00002717  00000-0  92143-3 0  9997
2 33907  74.0665 252.3951 0118349 242.0623 143.1909 14.33315989905203

Volg COSMOS 2251 DEB in realtime met AllMySat

Download on the App Store